Tracking 27079 objects as of 24-Mar-2023
HD Live streaming from Space Station
objects crossing your sky now

STARLINK-2407

Track STARLINK-2407 now!
10-day predictions
STARLINK-2407 is classified as:


NORAD ID: 47822
Int'l Code: 2021-018AM
Perigee: 553.3 km
Apogee: 555.2 km
Inclination: 53.1 °
Period: 95.6 minutes
Semi major axis: 6925 km
RCS: Unknown
Launch date: March 11, 2021
Source: United States (US)
Launch site: AIR FORCE EASTERN TEST RANGE (AFETR)
Your satellite tracking list
Your tracking list is empty




NASA's NSSDC Master Catalog

Two Line Element Set (TLE):
1 47822U 21018AM  23082.40026538  .00018798  00000-0  12764-2 0  9993
2 47822  53.0524  80.1912 0001326  93.4052 266.7088 15.06432052113336
Source of the keplerian elements: AFSPC